#timestamp,LO_Frequency,Hit,StdDev 
1527238815.0,286046998.3,P
1527238815.9,286046998.3,Y
1527238835.8,286046999.9,P
1527238855.6,286047001.9,P
1527238875.4,286047000.9,N
1527238895.3,286046998.5,N
1527238915.1,286046999.5,N
1527238935.9,286046998.9,N
1527238955.7,286047000.9,N
1527238975.5,286047000.7,N
1527238995.4,286047000.1,N
1527239015.2,286047001.9,N
1527239035.0,286047000.5,N
1527239035.9,286047000.5,N
1527239055.2,286047001.1,N
1527239075.1,286046998.5,N
1527239076.0,286046998.5,N
1527239095.8,286046998.7,N
1527239115.7,286046998.2,N
1527239135.5,286046999.1,N
1527239155.3,286046999.5,N
1527239175.2,286046999.2,N
1527239195.0,286046999.6,N
1527239195.9,286046999.6,N
1527239215.8,286046998.8,N
1527239235.6,286046998.7,N
1527239255.4,286046998.3,N
1527239275.3,286047000.7,N
1527239295.1,286047001.0,N
1527239296.0,286047001.0,N
1527239315.8,286046999.9,N
1527239335.7,286047000.1,N
1527239355.5,286046998.4,N
1527239375.4,286046998.9,N
1527239395.2,286046998.4,N
1527239415.0,286046997.0,N
1527239415.9,286046997.0,N
1527239435.8,286046998.1,N
1527239455.6,286047001.0,N
1527239475.4,286046997.0,N
1527239495.3,286046999.1,N
1527239515.1,286046999.0,N
1527239535.9,286046998.7,N
1527239555.7,286047000.2,N
1527239575.5,286047000.2,N
1527239595.4,286047001.2,N
1527239615.2,286046998.4,N
1527239635.0,286046996.6,N
1527239635.9,286046996.6,N
1527239655.8,286046999.1,N
1527239675.6,286046998.9,N
1527239695.5,286046998.2,N
1527239715.3,286046998.4,N
1527239735.1,286046997.9,N
1527239755.9,286046994.9,Y
1527239775.7,286046997.0,P
1527239795.5,286046995.4,P
1527239815.4,286046993.3,P
1527239835.2,286046996.3,N
1527239855.1,286046995.4,N
1527239856.0,286046995.4,N
1527239875.8,286046997.8,N
1527239895.6,286046997.9,N
1527239915.5,286046995.6,N
1527239935.3,286046994.0,Y
1527239955.2,286046997.3,P
1527239975.9,286046997.5,P
1527239995.7,286046996.5,P
1527240015.6,286046996.9,Y
1527240035.4,286047002.6,P
1527240055.2,286047004.1,N
1527240075.1,286047003.2,N
1527240076.0,286047003.2,N
1527240095.8,286047003.4,N
1527240115.7,286047003.9,N
1527240135.5,286047001.4,N
1527240155.3,286047001.7,N
1527240175.2,286047003.9,N
1527240195.0,286047004.3,N
1527240195.9,286047004.3,N
1527240215.7,286047002.5,N
1527240235.6,286047001.6,N
1527240255.4,286047002.1,N
1527240275.3,286047001.9,N
1527240295.1,286047003.3,N
1527240296.0,286047003.3,N
1527240315.8,286047001.4,N
1527240335.7,286047002.4,N
1527240355.5,286047002.5,N
1527240375.3,286047004.3,N
1527240395.2,286047005.8,Y
1527240415.0,286047002.1,P
1527240415.9,286047002.1,P
1527240435.8,286047001.5,P
1527240455.6,286047001.7,Y
1527240475.4,286047001.2,P
1527240495.3,286047001.1,N
1527240515.1,286047000.9,N
1527240535.9,286046999.7,N
1527240555.7,286047002.6,Y
1527240575.5,286047002.6,P
1527240595.4,286047000.3,N
1527240615.2,286047000.4,N
1527240635.0,286047000.5,N
1527240636.0,286047000.5,N
1527240655.8,286047000.9,N
1527240675.6,286047001.1,N
1527240695.5,286047000.5,N
1527240715.3,286047001.0,N
1527240735.1,286046998.2,N
1527240755.9,286046998.2,N
1527240775.7,286047000.8,N
1527240795.6,286046998.1,N
1527240815.4,286046998.3,N
1527240835.2,286047001.1,N
1527240855.1,286047000.6,N
1527240856.0,286047000.6,N
1527240875.8,286047001.2,N
1527240895.6,286046998.9,N
1527240915.5,286047000.3,N
1527240935.3,286047000.3,N
1527240955.2,286046999.7,N
1527240975.9,286047002.5,N
1527240995.7,286047002.0,N
1527241015.6,286047004.3,Y
1527241035.4,286047002.6,P
1527241055.3,286047002.3,N
1527241075.1,286047004.0,P
1527241076.0,286047004.0,Y
1527241095.8,286046999.0,P
1527241115.7,286047001.1,N
1527241135.5,286046999.4,N
1527241155.3,286046999.3,N
1527241175.2,286046999.0,N
1527241195.0,286046998.4,N
1527241195.9,286046998.4,N
1527241215.8,286047001.2,N
1527241235.6,286047001.1,N
1527241255.4,286047000.7,N
1527241275.3,286046998.8,N
1527241295.1,286046998.4,N
1527241315.9,286046999.5,N
1527241335.7,286046996.5,N
1527241355.5,286046999.6,N
1527241375.4,286046999.4,N
1527241395.2,286046998.8,N
1527241415.0,286046998.9,N
1527241415.9,286046998.9,N
1527241435.8,286047000.1,N
1527241455.6,286047004.3,Y
1527241475.5,286047003.8,P
1527241495.3,286047001.9,N
1527241515.1,286047000.3,N
1527241535.9,286046999.4,N
1527241555.7,286046998.3,N
1527241575.6,286046998.3,N
1527241595.4,286046999.9,N
1527241615.2,286047004.4,N
1527241635.1,286047002.2,N
1527241636.0,286047002.2,N
1527241655.8,286047002.1,N
1527241675.6,286047002.1,N
1527241695.5,286047001.9,N
1527241715.3,286047002.3,N
1527241735.2,286047001.9,N
1527241755.9,286047000.5,N
1527241775.7,286047000.3,N
1527241795.6,286047002.3,N
1527241815.4,286047001.4,N
1527241835.2,286047003.8,N
1527241855.1,286047005.5,Y
1527241856.0,286047005.5,P
1527241875.8,286047002.3,N
1527241895.7,286047002.7,N
1527241915.5,286046999.8,N
1527241935.3,286047000.5,N
1527241955.2,286047000.1,N
1527241975.0,286046999.7,N
1527241975.9,286046999.7,N
1527241995.8,286046999.8,N
1527242015.6,286047000.3,N
1527242035.4,286047000.3,N
1527242055.3,286046998.7,N
1527242075.1,286046998.9,N
1527242095.9,286046998.1,N
1527242115.7,286047000.8,N
1527242135.5,286046999.9,N
1527242155.4,286047002.7,N
1527242175.2,286047000.1,N
1527242195.0,286047000.1,N
1527242195.9,286047000.1,N
1527242215.8,286047001.9,N
1527242235.6,286047002.1,N
1527242255.5,286047002.0,N
1527242275.3,286047002.3,N
1527242295.1,286047000.3,N
1527242315.9,286047004.2,N
1527242335.7,286047002.2,N
1527242355.5,286047001.8,N
1527242375.4,286047001.9,N
1527242395.2,286046999.9,N
